Location: Liscomb Game Sanctuary
(45.1633°N, 62.5575°W)
Time: 17:18:21
(UTC-03:00)

Amateur Radio Satellites - All Passes

Search period start: 26 May 2016 16:48
Search period end: 27 May 2016 16:48
Location: Liscomb Game Sanctuary, 45.1633°N, 62.5575°W

Satellite Date Start Highest point End Downlink Frequencies (MHz)
Time Altitude Azimuth
NOAA 15 26 May 16:49:15 16:52:37 17° 58° (ENE) 16:56:01 137.62
Cubesat XI-IV 26 May 16:50:37 16:52:43 12° 54° (NE) 16:54:49 437.490
RS-15 26 May 17:11:18 17:21:16 38° 106° (ESE) 17:31:42 29.354- 29.394
CUBESAT XI-V 26 May 17:27:14 17:29:49 14° 89° (E) 17:32:22 437.345
SWISSCUBE 26 May 17:28:58 17:29:59 11° 305° (NW) 17:30:59 437.505
ITUPSAT 1 26 May 17:34:22 17:35:24 11° 305° (NW) 17:36:26 437.325
CUTE-I 26 May 17:34:27 17:38:54 28° 63° (ENE) 17:43:22 437.470
KKS-1 26 May 17:35:44 17:40:00 47° 289° (WNW) 17:44:15 437.445
MOZHAYETS 4 26 May 17:41:16 17:45:48 56° 287° (WNW) 17:50:19
BRITE-PL 26 May 17:46:08 17:51:20 39° 68° (ENE) 17:56:34 437.365/2234.400
Cosmos 2504 26 May 18:02:15 18:09:13 55° 91° (E) 18:16:36 435.465 / 435.565
HORYU 2 26 May 18:03:18 18:06:49 23° 266° (W) 18:10:20 437.375
Cosmos 2491 26 May 18:05:37 18:11:16 19° 284° (WNW) 18:16:56 435.465 / 435.565
YUBILEINY 26 May 18:06:39 18:14:56 48° 287° (WNW) 18:23:17 435.215
NOAA 18 26 May 18:14:19 18:19:45 75° 73° (ENE) 18:25:13 137.9125
STARS 26 May 18:15:14 18:19:13 35° 292° (WNW) 18:23:11 437.465
LilacSat-2 26 May 18:15:31 18:19:11 47° 73° (ENE) 18:22:51 437.200
GOMX 1 26 May 18:17:47 18:22:47 37° 68° (ENE) 18:27:41 467.674
PCSat 26 May 18:25:02 18:29:48 30° 45° (NE) 18:34:33 145.827
NOAA 15 26 May 18:26:28 18:31:47 77° 256° (WSW) 18:37:08 137.62
Cubesat XI-IV 26 May 18:26:35 18:31:54 75° 72° (ENE) 18:37:13 437.490
CUBESAT XI-V 26 May 19:02:58 19:07:40 67° 286° (WNW) 19:12:20 437.345
CUTE 1.7 + AOD 2 26 May 19:06:22 19:08:23 13° 61° (ENE) 19:10:25 437.475
DOVE 4 26 May 19:12:53 19:18:01 56° 72° (ENE) 19:22:57 437.250
CUTE-I 26 May 19:13:42 19:18:44 43° 261° (W) 19:23:49 437.470
AUBIESAT-1 26 May 19:17:09 19:20:48 32° 65° (ENE) 19:24:14 437.475
O/OREOS (USA 219) 26 May 19:19:48 19:23:58 36° 58° (ENE) 19:28:05 437.305
RS-15 26 May 19:21:28 19:32:53 71° 311° (NW) 19:45:01 29.354- 29.394
M-CUBED/EXP-1 PRIME 26 May 19:22:22 19:26:21 44° 67° (ENE) 19:30:04 437.505
BRITE-PL 26 May 19:24:39 19:29:46 35° 265° (W) 19:34:58 437.365/2234.400
BEESAT 2 26 May 19:24:45 19:25:58 11° 31° (NNE) 19:27:11 435.950
HO-68 26 May 19:26:03 19:32:39 42° 63° (ENE) 19:39:16 435.675
COMPASS 1 26 May 19:32:37 19:34:36 13° 61° (ENE) 19:36:35 437.405
AAUSAT CUBESAT 2 26 May 19:36:52 19:38:24 12° 60° (ENE) 19:39:56 437.432
STRAND 1 26 May 19:51:20 19:55:57 33° 96° (E) 20:00:34 437.568
LilacSat-2 26 May 19:51:49 19:53:46 13° 269° (W) 19:55:42 437.200
CINEMA 3 26 May 19:53:09 19:57:39 44° 71° (ENE) 20:01:58 145.822/145.860
GOMX 1 26 May 19:55:50 20:00:49 34° 265° (W) 20:05:44 467.674
Cosmos 2504 26 May 19:56:47 20:03:02 30° 293° (WNW) 20:09:39 435.465 / 435.565
NOAA 18 26 May 19:57:40 20:00:59 16° 270° (W) 20:04:18 137.9125
BEESAT 3 26 May 20:00:32 20:03:56 27° 44° (NE) 20:07:20 437.485
PCSat 26 May 20:08:12 20:13:27 51° 245° (WSW) 20:18:40 145.827
Cubesat XI-IV 26 May 20:09:29 20:12:33 15° 271° (W) 20:15:37 437.490
CANX-2 26 May 20:12:00 20:16:10 70° 76° (ENE) 20:20:24 2200.000
NOAA 15 26 May 20:12:06 20:12:25 10° 274° (W) 20:12:45 137.62
YUBILEINY 26 May 20:13:53 20:14:30 10° 313° (NW) 20:15:06 435.215
SEEDS 26 May 20:17:17 20:21:18 50° 72° (ENE) 20:25:23 437.485
CUTE 1.7 + AOD 2 26 May 20:39:31 20:43:42 67° 258° (WSW) 20:47:56 437.475
Oscar 11 26 May 20:39:34 20:42:57 23° 66° (ENE) 20:46:22 145.826/435.025
CUBEBUG 2 26 May 20:50:49 20:55:06 54° 73° (ENE) 20:59:17 437.445
ZACube-1 26 May 20:51:19 20:54:51 26° 67° (ENE) 20:58:21 437.345
AUBIESAT-1 26 May 20:51:59 20:55:19 23° 259° (WSW) 20:58:30 437.475
DOVE 4 26 May 20:52:10 20:55:59 20° 269° (W) 20:59:43 437.250
M-CUBED/EXP-1 PRIME 26 May 20:58:12 21:01:03 18° 260° (W) 21:03:46 437.505
O/OREOS (USA 219) 26 May 20:59:31 21:03:12 25° 257° (WSW) 21:06:51 437.305
BEESAT 2 26 May 21:00:44 21:04:41 56° 51° (NE) 21:08:36 435.950
CUSAT 1 26 May 21:03:51 21:06:48 12° 48° (NE) 21:09:39 437.405
COMPASS 1 26 May 21:05:31 21:09:38 66° 259° (W) 21:13:47 437.405
AIST 1 26 May 21:06:57 21:10:28 24° 88° (E) 21:13:59
AAUSAT CUBESAT 2 26 May 21:09:11 21:13:18 75° 259° (W) 21:17:28 437.432
HUMSAT D 26 May 21:12:01 21:13:21 11° 60° (ENE) 21:14:42 437.325/437.525
PRISM 26 May 21:12:57 21:16:52 37° 98° (E) 21:20:44 437.425
HO-68 26 May 21:13:39 21:20:21 43° 262° (W) 21:27:06 435.675
UWE-3 26 May 21:21:49 21:26:08 82° 76° (ENE) 21:30:22 435.000/436.395/437.385
AIST 2 26 May 21:23:58 21:25:56 13° 32° (NNE) 21:27:53 435.215
FUNcube-1 26 May 21:29:18 21:33:28 62° 74° (ENE) 21:37:35 145.935
STRAND 1 26 May 21:30:29 21:35:08 35° 294° (WNW) 21:39:45 437.568
CINEMA 3 26 May 21:31:19 21:34:56 21° 267° (W) 21:38:28 145.822/145.860
RS-15 26 May 21:37:36 21:47:58 34° 341° (NNW) 21:58:45 29.354- 29.394
BEESAT 3 26 May 21:38:04 21:41:43 35° 242° (WSW) 21:45:18 437.485
DELFI C3 26 May 21:48:45 21:52:38 57° 73° (ENE) 21:56:33 145.870
CANX-2 26 May 21:51:10 21:52:31 11° 272° (W) 21:53:54 2200.000
SEEDS 26 May 21:54:51 21:57:19 15° 269° (W) 21:59:50 437.485
GONETS M04 26 May 21:59:52 22:08:09 48° 88° (E) 22:16:25
ESTCUBE 1 26 May 22:10:09 22:11:41 12° 58° (ENE) 22:13:14 437.505/2401.250
Oscar 11 26 May 22:14:57 22:18:54 36° 263° (W) 22:22:54 145.826/435.025
DANDE 26 May 22:26:55 22:33:44 26° 61° (ENE) 22:40:16 436.750
ZACube-1 26 May 22:27:20 22:31:04 30° 264° (W) 22:34:46 437.345
CUBEBUG 2 26 May 22:29:29 22:32:02 15° 269° (W) 22:34:34 437.445
CUBEBUG 1 26 May 22:32:06 22:34:11 13° 60° (ENE) 22:36:17 437.445
ISS 26 May 22:32:47 22:35:55 44° 143° (SE) 22:39:03 145.825
ANTELSAT 26 May 22:34:07 22:36:50 16° 91° (E) 22:39:34 437.575/2403.000
DX 1 26 May 22:35:01 22:36:42 12° 58° (ENE) 22:38:23 434.975-435.025
VELOX 1 26 May 22:35:50 22:38:14 14° 60° (ENE) 22:40:39 145.980
BEESAT 2 26 May 22:39:44 22:42:06 15° 249° (WSW) 22:44:28 435.950
Cosmos 2499 26 May 22:40:09 22:47:00 48° 89° (E) 22:54:21 435.465 / 435.565
CUSAT 1 26 May 22:43:26 22:51:08 51° 71° (ENE) 22:57:44 437.405
AIST 1 26 May 22:43:54 22:47:54 33° 286° (WNW) 22:51:55
HUMSAT D 26 May 22:44:20 22:48:25 75° 259° (W) 22:52:30 437.325/437.525
50 SAT 26 May 22:45:28 22:47:32 15° 64° (ENE) 22:49:38 437.505
PRISM 26 May 22:48:45 22:51:58 22° 295° (WNW) 22:55:10 437.425
AIST 2 26 May 23:01:04 23:05:13 67° 53° (NE) 23:09:20 435.215
SPROUT 26 May 23:04:59 23:06:07 11° 59° (ENE) 23:07:15 437.525
FUNcube-1 26 May 23:08:15 23:10:07 13° 270° (W) 23:11:58 145.935
AISAT 26 May 23:09:57 23:13:53 31° 67° (ENE) 23:17:50 437.250
UKube-1 26 May 23:23:50 23:27:33 28° 66° (ENE) 23:31:16 .
DELFI C3 26 May 23:26:09 23:27:52 12° 270° (W) 23:29:36 145.870
POPSAT HIP 1 26 May 23:28:02 23:28:59 11° 88° (E) 23:29:56 437.405
UNISAT 6 26 May 23:28:18 23:32:33 60° 101° (E) 23:36:51 437.425
QB50P1 26 May 23:28:19 23:29:31 11° 89° (E) 23:30:41 145.935-145.965
QB50P2 26 May 23:29:45 23:31:30 12° 89° (E) 23:33:14 145.880/145.840
POLYITAN 1 26 May 23:32:07 23:33:57 12° 89° (E) 23:35:45 437.675
TIGRISAT 26 May 23:36:12 23:40:29 69° 102° (ESE) 23:44:48 435.000
ESTCUBE 1 26 May 23:43:15 23:47:47 89° 66° (ENE) 23:52:21 437.505/2401.250
NANOSAT C BR1 26 May 23:46:02 23:48:46 17° 92° (E) 23:51:29 145.865
RS-15 26 May 23:54:36 00:05:09 33° 16° (NNE) 00:15:53 29.354- 29.394
GONETS M04 26 May 23:56:53 00:05:05 42° 289° (WNW) 00:13:18
PHONESAT 2.4 27 May 00:03:26 00:06:05 25° 167° (SSE) 00:08:45 2401.200-2431.200
CUBEBUG 1 27 May 00:05:27 00:09:52 76° 257° (WSW) 00:14:21 437.445
DX 1 27 May 00:07:51 00:12:14 84° 257° (WSW) 00:16:39 434.975-435.025
DANDE 27 May 00:09:06 00:17:36 84° 262° (W) 00:25:26 436.750
ISS 27 May 00:09:19 00:12:24 38° 342° (NNW) 00:15:30 145.825
ANTELSAT 27 May 00:09:41 00:13:50 50° 288° (WNW) 00:18:03 437.575/2403.000
VELOX 1 27 May 00:09:43 00:14:10 70° 258° (WSW) 00:18:38 145.980
50 SAT 27 May 00:17:28 00:20:56 43° 261° (W) 00:24:27 437.505
DUCHIFAT 1 27 May 00:24:13 00:28:10 40° 98° (E) 00:32:05 145.980
CUSAT 1 27 May 00:25:59 00:33:00 37° 274° (W) 00:39:03 437.405
Cosmos 2499 27 May 00:33:44 00:40:20 36° 291° (WNW) 00:47:24 435.465 / 435.565
SPROUT 27 May 00:37:06 00:41:24 88° 258° (WSW) 00:45:43 437.525
AIST 2 27 May 00:41:02 00:43:10 14° 250° (WSW) 00:45:19 435.215
SO-50 27 May 00:43:37 00:47:55 31° 115° (ESE) 00:52:15 436.795
AISAT 27 May 00:46:27 00:50:20 29° 264° (W) 00:54:14 437.250
BUGSAT 1 27 May 00:46:43 00:50:24 32° 97° (E) 00:54:01 437.445
UKube-1 27 May 00:59:44 01:03:32 29° 264° (W) 01:07:22 .
POPSAT HIP 1 27 May 01:01:05 01:05:17 74° 285° (WNW) 01:09:27 437.405
QB50P1 27 May 01:01:35 01:05:47 71° 285° (WNW) 01:09:57 145.935-145.965
QB50P2 27 May 01:03:34 01:07:44 64° 287° (WNW) 01:11:54 145.880/145.840
TISAT 1 27 May 01:05:00 01:09:07 54° 73° (ENE) 01:13:16 437.305
POLYITAN 1 27 May 01:06:01 01:10:11 63° 286° (WNW) 01:14:19 437.675
UNISAT 6 27 May 01:06:22 01:08:50 15° 298° (WNW) 01:11:19 437.425
TIGRISAT 27 May 01:14:34 01:16:40 13° 299° (WNW) 01:18:45 435.000
SWISSCUBE 27 May 01:20:24 01:23:54 21° 62° (ENE) 01:27:23 437.505
NANOSAT C BR1 27 May 01:20:44 01:24:45 46° 289° (WNW) 01:28:45 145.865
ITUPSAT 1 27 May 01:26:01 01:29:32 21° 62° (ENE) 01:33:03 437.325
JAS-2 27 May 01:38:58 01:46:17 49° 97° (E) 01:52:50 435.910
PHONESAT 2.4 27 May 01:39:35 01:42:28 34° 183° (S) 01:45:20 2401.200-2431.200
ISS 27 May 01:46:38 01:49:25 25° 2° (N) 01:52:12 145.825
BEESAT 27 May 01:49:18 01:53:33 34° 67° (ENE) 01:57:49 436.000
DANDE 27 May 01:53:38 01:59:14 20° 282° (WNW) 02:04:37 436.750
DUCHIFAT 1 27 May 02:00:31 02:03:36 20° 295° (WNW) 02:06:41 145.980
Oscar 19 27 May 02:00:38 02:05:14 31° 96° (E) 02:09:46 437.125/150
RS-15 27 May 02:08:23 02:20:37 65° 46° (NE) 02:32:52 29.354- 29.394
Gurwin Techsat 1B 27 May 02:16:30 02:20:19 20° 91° (E) 02:24:06 435.225
YUBILEINY 27 May 02:17:39 02:24:20 23° 61° (ENE) 02:30:59 435.215
BUGSAT 1 27 May 02:22:26 02:25:37 23° 294° (WNW) 02:28:46 437.445
SO-50 27 May 02:23:39 02:28:19 42° 314° (NW) 02:32:58 436.795
ITAMSAT 1 27 May 02:41:58 02:44:11 13° 88° (E) 02:46:23 435.822/435.867
TISAT 1 27 May 02:42:42 02:45:07 15° 269° (W) 02:47:31 437.305
SWISSCUBE 27 May 02:56:43 03:01:20 51° 260° (W) 03:06:00 437.505
KKS-1 27 May 03:00:00 03:03:29 23° 64° (ENE) 03:06:59 437.445
ITUPSAT 1 27 May 03:02:24 03:07:01 51° 260° (W) 03:11:40 437.325
MOZHAYETS 4 27 May 03:09:10 03:12:33 21° 64° (ENE) 03:15:57
PHONESAT 2.4 27 May 03:16:27 03:18:46 19° 200° (SSW) 03:21:05 2401.200-2431.200
Cosmos 2491 27 May 03:16:39 03:22:59 23° 78° (ENE) 03:29:18 435.465 / 435.565
ISS 27 May 03:23:12 03:26:22 46° 22° (NNE) 03:29:33 145.825
JAS-2 27 May 03:24:12 03:31:04 38° 298° (WNW) 03:37:21 435.910
BEESAT 27 May 03:27:13 03:31:21 29° 264° (W) 03:35:30 436.000
STARS 27 May 03:37:42 03:41:28 28° 66° (ENE) 03:45:14 437.465
Oscar 19 27 May 03:39:52 03:44:35 36° 293° (WNW) 03:49:14 437.125/150
Cosmos 2504 27 May 03:51:16 03:57:59 26° 64° (ENE) 04:04:55 435.465 / 435.565
Gurwin Techsat 1B 27 May 03:55:25 04:00:40 60° 289° (WNW) 04:05:53 435.225
SO-50 27 May 04:08:10 04:10:06 12° 336° (NNW) 04:12:01 436.795
YUBILEINY 27 May 04:13:32 04:22:19 85° 263° (W) 04:31:07 435.215
ITAMSAT 1 27 May 04:19:06 04:24:21 88° 286° (WNW) 04:29:35 435.822/435.867
RS-15 27 May 04:21:26 04:32:46 46° 251° (WSW) 04:44:05 29.354- 29.394
CUBESAT XI-V 27 May 04:32:23 04:35:38 19° 62° (ENE) 04:38:53 437.345
KKS-1 27 May 04:35:37 04:39:50 40° 262° (W) 04:44:04 437.445
AO-7 27 May 04:41:25 04:49:34 53° 102° (ESE) 04:57:41 29.400- 29.500
MOZHAYETS 4 27 May 04:45:02 04:49:24 46° 261° (W) 04:53:50
ISS 27 May 04:59:48 05:02:43 31° 220° (SW) 05:05:40 145.825
Cosmos 2491 27 May 05:09:52 05:18:43 83° 278° (W) 05:27:37 435.465 / 435.565
STARS 27 May 05:13:50 05:17:46 31° 264° (W) 05:21:41 437.465
Cosmos 2504 27 May 05:43:51 05:52:13 79° 264° (W) 06:01:01 435.465 / 435.565
HORYU 2 27 May 05:50:54 05:55:16 56° 101° (E) 05:59:37 437.375
ITAMSAT 1 27 May 06:00:26 06:03:04 14° 304° (NW) 06:05:41 435.822/435.867
CUBESAT XI-V 27 May 06:08:01 06:12:36 55° 260° (W) 06:17:14 437.345
AO-85 27 May 06:09:13 06:13:56 30° 114° (ESE) 06:18:35 145.980
YUBILEINY 27 May 06:12:18 06:17:46 19° 284° (WNW) 06:23:15 435.215
AO-7 27 May 06:34:31 06:42:09 41° 302° (WNW) 06:49:47 29.400- 29.500
NOAA 18 27 May 06:34:44 06:39:16 26° 94° (E) 06:43:48 137.9125
NOAA 15 27 May 06:39:48 06:44:38 34° 96° (E) 06:49:24 137.62
Cubesat XI-IV 27 May 06:42:14 06:46:39 25° 94° (E) 06:51:03 437.490
STRAND 1 27 May 07:09:04 07:14:02 57° 71° (ENE) 07:19:04 437.568
Cosmos 2491 27 May 07:10:58 07:17:04 20° 302° (WNW) 07:23:13 435.465 / 435.565
DOVE 4 27 May 07:12:44 07:13:54 11° 86° (E) 07:15:02 437.250
LilacSat-2 27 May 07:20:55 07:24:39 54° 100° (E) 07:28:21 437.200
BRITE-PL 27 May 07:27:27 07:32:42 77° 102° (ESE) 07:37:29 437.365/2234.400
CUTE-I 27 May 07:28:10 07:33:30 64° 102° (ESE) 07:38:50 437.470
HORYU 2 27 May 07:28:32 07:31:25 17° 298° (WNW) 07:34:18 437.375
SO-50 27 May 07:33:31 07:35:45 13° 26° (NNE) 07:37:57 436.795
Cosmos 2504 27 May 07:39:25 07:44:19 17° 284° (WNW) 07:49:21 435.465 / 435.565
AO-85 27 May 07:48:59 07:54:17 50° 312° (NW) 07:59:26 145.980
GOMX 1 27 May 07:55:41 08:00:27 69° 101° (E) 08:04:52 467.674
CANX-2 27 May 07:57:33 07:58:31 11° 88° (E) 07:59:28 2200.000
PRISM 27 May 08:04:12 08:07:59 35° 69° (ENE) 08:11:49 437.425
GONETS M04 27 May 08:07:35 08:14:41 27° 63° (ENE) 08:21:43
NOAA 18 27 May 08:14:55 08:20:09 47° 292° (WNW) 08:25:22 137.9125
NOAA 15 27 May 08:19:37 08:24:23 35° 294° (WNW) 08:29:08 137.62
Cubesat XI-IV 27 May 08:21:49 08:26:56 47° 291° (WNW) 08:32:02 437.490
CUTE 1.7 + AOD 2 27 May 08:23:11 08:26:10 18° 92° (E) 08:29:09 437.475
Cosmos 2499 27 May 08:27:55 08:34:19 23° 61° (ENE) 08:40:52 435.465 / 435.565
AUBIESAT-1 27 May 08:29:28 08:30:56 12° 97° (E) 08:32:22 437.475
AO-7 27 May 08:30:20 08:32:41 11° 325° (NW) 08:35:03 29.400- 29.500
M-CUBED/EXP-1 PRIME 27 May 08:34:53 08:37:12 18° 99° (E) 08:39:29 437.505
HO-68 27 May 08:38:37 08:45:07 35° 96° (E) 08:51:33 435.675
COMPASS 1 27 May 08:47:14 08:50:02 17° 91° (E) 08:52:51 437.405
DOVE 4 27 May 08:47:49 08:52:16 73° 285° (WNW) 08:56:27 437.250
AIST 1 27 May 08:48:14 08:52:37 73° 80° (E) 08:56:56
STRAND 1 27 May 08:49:59 08:53:35 19° 269° (W) 08:57:13 437.568
AAUSAT CUBESAT 2 27 May 08:50:39 08:53:07 15° 90° (E) 08:55:33 437.432
LilacSat-2 27 May 08:56:45 08:58:31 13° 297° (WNW) 09:00:17 437.200
BRITE-PL 27 May 09:07:21 09:10:25 16° 302° (WNW) 09:13:21 437.365/2234.400
CUTE-I 27 May 09:09:13 09:13:04 21° 300° (WNW) 09:16:56 437.470
UWE-3 27 May 09:10:50 09:12:51 13° 90° (E) 09:14:53 435.000/436.395/437.385
PCSat 27 May 09:11:05 09:14:03 15° 104° (ESE) 09:17:01 145.827
SO-50 27 May 09:12:47 09:17:24 49° 48° (NE) 09:21:51 436.795
CINEMA 3 27 May 09:22:39 09:26:51 80° 101° (E) 09:30:59 145.822/145.860
CANX-2 27 May 09:30:36 09:34:53 77° 286° (WNW) 09:39:11 2200.000
AO-85 27 May 09:33:04 09:35:59 15° 332° (NNW) 09:38:50 145.980
O/OREOS (USA 219) 27 May 09:34:26 09:38:17 28° 104° (ESE) 09:42:09 437.305
SEEDS 27 May 09:34:27 09:38:43 76° 102° (ESE) 09:42:59 437.485
ANTELSAT 27 May 09:35:03 09:38:09 19° 64° (ENE) 09:41:14 437.575/2403.000
GOMX 1 27 May 09:35:12 09:37:54 15° 301° (WNW) 09:40:29 467.674
PRISM 27 May 09:40:11 09:43:24 22° 266° (W) 09:46:40 437.425
CUTE 1.7 + AOD 2 27 May 09:58:09 10:02:14 44° 289° (WNW) 10:06:19 437.475
Oscar 11 27 May 09:59:47 10:03:45 34° 97° (E) 10:07:42 145.826/435.025
AUBIESAT-1 27 May 10:02:34 10:05:41 39° 294° (WNW) 10:08:48 437.475
GONETS M04 27 May 10:03:44 10:12:25 75° 266° (W) 10:21:04
M-CUBED/EXP-1 PRIME 27 May 10:09:02 10:11:52 26° 296° (WNW) 10:14:38 437.505
ZACube-1 27 May 10:12:49 10:16:47 40° 98° (E) 10:20:47 437.345
CUBEBUG 2 27 May 10:15:49 10:20:00 86° 287° (WNW) 10:24:12 437.445
Cosmos 2499 27 May 10:19:59 10:28:35 90° 72° (ENE) 10:37:29 435.465 / 435.565
COMPASS 1 27 May 10:21:48 10:25:51 46° 288° (WNW) 10:29:53 437.405
POPSAT HIP 1 27 May 10:22:32 10:24:11 12° 60° (ENE) 10:25:51 437.405
QB50P1 27 May 10:22:52 10:24:38 12° 60° (ENE) 10:26:23 145.935-145.965
QB50P2 27 May 10:24:36 10:26:42 14° 61° (ENE) 10:28:48 145.880/145.840
AAUSAT CUBESAT 2 27 May 10:24:49 10:28:55 52° 287° (WNW) 10:33:00 437.432
HO-68 27 May 10:26:09 10:33:01 51° 295° (WNW) 10:39:52 435.675
HUMSAT D 27 May 10:26:50 10:29:13 15° 91° (E) 10:31:37 437.325/437.525
POLYITAN 1 27 May 10:26:59 10:29:08 14° 61° (ENE) 10:31:18 437.675
AIST 1 27 May 10:28:31 10:29:32 11° 278° (W) 10:30:34
UNISAT 6 27 May 10:28:55 10:33:15 68° 75° (ENE) 10:37:32 437.425
TIGRISAT 27 May 10:36:38 10:40:59 77° 75° (ENE) 10:45:18 435.000
NANOSAT C BR1 27 May 10:40:23 10:43:11 18° 63° (ENE) 10:46:01 145.865
UWE-3 27 May 10:45:36 10:49:42 58° 287° (WNW) 10:53:51 435.000/436.395/437.385
FUNcube-1 27 May 10:51:05 10:55:16 81° 283° (WNW) 10:59:30 145.935
PCSat 27 May 10:51:16 10:56:42 85° 302° (WNW) 11:02:11 145.827
SO-50 27 May 10:53:52 10:57:34 23° 247° (WSW) 11:01:09 436.795
DELFI C3 27 May 10:59:00 11:03:02 73° 101° (E) 11:07:04 145.870
CINEMA 3 27 May 11:02:14 11:03:22 11° 301° (WNW) 11:04:29 145.822/145.860
ANTELSAT 27 May 11:10:25 11:14:35 44° 261° (W) 11:18:44 437.575/2403.000
SEEDS 27 May 11:12:07 11:13:50 12° 300° (WNW) 11:15:32 437.485
O/OREOS (USA 219) 27 May 11:13:25 11:17:35 34° 302° (WNW) 11:21:45 437.305
DUCHIFAT 1 27 May 11:17:52 11:21:48 38° 70° (ENE) 11:25:43 145.980
BEESAT 3 27 May 11:30:58 11:33:57 21° 114° (ESE) 11:36:59 437.485
ESTCUBE 1 27 May 11:34:51 11:37:45 17° 91° (E) 11:40:39 437.505/2401.250
Oscar 11 27 May 11:36:11 11:39:44 25° 294° (WNW) 11:43:17 145.826/435.025
BUGSAT 1 27 May 11:38:13 11:41:56 31° 68° (ENE) 11:45:38 437.445
DANDE 27 May 11:39:30 11:43:08 17° 76° (ENE) 11:47:17 436.750
50 SAT 27 May 11:45:58 11:47:53 13° 91° (E) 11:49:47 437.505
CUSAT 1 27 May 11:46:47 11:52:47 43° 88° (E) 11:59:56 437.405
ZACube-1 27 May 11:49:47 11:52:50 20° 295° (WNW) 11:55:54 437.345
JAS-2 27 May 11:52:20 11:58:44 32° 59° (ENE) 12:05:23 435.910
CUBEBUG 1 27 May 11:53:06 11:56:00 17° 91° (E) 11:58:52 437.445
POPSAT HIP 1 27 May 11:55:08 11:59:23 77° 259° (WSW) 12:03:38 437.405
DX 1 27 May 11:55:27 11:57:50 14° 90° (E) 12:00:14 434.975-435.025
QB50P1 27 May 11:55:35 11:59:49 75° 256° (WSW) 12:04:05 145.935-145.965
QB50P2 27 May 11:57:46 12:01:59 67° 258° (WSW) 12:06:13 145.880/145.840
VELOX 1 27 May 11:58:40 12:01:49 19° 92° (E) 12:04:57 145.980
POLYITAN 1 27 May 12:00:14 12:04:27 66° 258° (WSW) 12:08:40 437.675
HUMSAT D 27 May 12:01:07 12:05:09 52° 287° (WNW) 12:09:13 437.325/437.525
GONETS M04 27 May 12:03:09 12:07:39 15° 287° (WNW) 12:12:09
UNISAT 6 27 May 12:08:38 12:10:26 12° 271° (W) 12:12:13 437.425
NANOSAT C BR1 27 May 12:14:29 12:18:35 48° 261° (W) 12:22:41 145.865
Cosmos 2499 27 May 12:14:44 12:20:37 21° 282° (WNW) 12:26:38 435.465 / 435.565
HO-68 27 May 12:16:47 12:19:06 12° 316° (NW) 12:21:25 435.675
TIGRISAT 27 May 12:17:13 12:18:12 11° 272° (W) 12:19:10 435.000
SPROUT 27 May 12:22:38 12:24:48 14° 90° (E) 12:26:57 437.525
BEESAT 2 27 May 12:31:53 12:35:45 52° 121° (ESE) 12:39:39 435.950
AISAT 27 May 12:33:55 12:38:11 45° 99° (E) 12:42:23 437.250
DELFI C3 27 May 12:35:54 12:37:21 12° 299° (WNW) 12:38:47 145.870
PCSat 27 May 12:37:07 12:40:56 19° 323° (NW) 12:44:47 145.827
UKube-1 27 May 12:44:15 12:48:16 37° 98° (E) 12:52:17 .
DUCHIFAT 1 27 May 12:54:29 12:57:38 20° 267° (W) 13:00:48 145.980
AO-85 27 May 12:59:53 13:01:45 12° 23° (NNE) 13:03:35 145.980
BEESAT 3 27 May 13:07:41 13:11:25 41° 312° (NW) 13:15:12 437.485
ESTCUBE 1 27 May 13:10:26 13:14:54 55° 288° (WNW) 13:19:19 437.505/2401.250
BUGSAT 1 27 May 13:13:51 13:17:19 25° 265° (W) 13:20:48 437.445
50 SAT 27 May 13:18:17 13:21:52 46° 288° (WNW) 13:25:26 437.505
DANDE 27 May 13:19:03 13:24:36 84° 280° (W) 13:31:58 436.750
Oscar 19 27 May 13:19:12 13:24:17 56° 71° (ENE) 13:29:23 437.125/150
Cosmos 2491 27 May 13:23:49 13:27:15 13° 50° (NE) 13:30:40 435.465 / 435.565
CUBEBUG 1 27 May 13:28:19 13:32:34 49° 289° (WNW) 13:36:46 437.445
CUSAT 1 27 May 13:28:44 13:34:55 42° 292° (WNW) 13:42:15 437.405
DX 1 27 May 13:30:07 13:34:26 59° 288° (WNW) 13:38:41 434.975-435.025
VELOX 1 27 May 13:34:17 13:38:32 45° 289° (WNW) 13:42:44 145.980
JAS-2 27 May 13:35:50 13:43:09 66° 259° (W) 13:51:00 435.910
Gurwin Techsat 1B 27 May 13:39:14 13:44:05 38° 67° (ENE) 13:48:58 435.225
AO-7 27 May 13:53:07 13:59:03 22° 47° (NE) 14:04:59 29.400- 29.500
SPROUT 27 May 13:56:56 14:01:08 59° 287° (WNW) 14:05:19 437.525
ITAMSAT 1 27 May 14:01:03 14:05:14 25° 63° (ENE) 14:09:25 435.822/435.867
BEESAT 2 27 May 14:10:49 14:13:53 21° 320° (NW) 14:16:57 435.950
AISAT 27 May 14:11:06 14:14:21 20° 297° (WNW) 14:17:35 437.250
UKube-1 27 May 14:20:43 14:24:08 23° 295° (WNW) 14:27:31 .
TISAT 1 27 May 14:22:18 14:26:29 74° 103° (ESE) 14:30:38 437.305
AIST 2 27 May 14:38:17 14:42:24 73° 122° (ESE) 14:46:32 435.215
AO-85 27 May 14:39:04 14:43:38 41° 46° (NE) 14:47:48 145.980
SWISSCUBE 27 May 14:54:48 14:59:10 34° 97° (E) 15:03:31 437.505
Oscar 19 27 May 15:00:09 15:03:57 20° 268° (W) 15:07:46 437.125/150
ITUPSAT 1 27 May 15:00:45 15:05:10 35° 97° (E) 15:09:32 437.325
DANDE 27 May 15:04:57 15:08:59 17° 307° (NW) 15:13:37 436.750
Cosmos 2491 27 May 15:17:53 15:26:30 56° 75° (ENE) 15:35:01 435.465 / 435.565
Gurwin Techsat 1B 27 May 15:19:25 15:24:05 31° 265° (W) 15:28:48 435.225
YUBILEINY 27 May 15:23:03 15:29:22 23° 78° (ENE) 15:35:42 435.215
BEESAT 27 May 15:24:19 15:29:04 60° 101° (ESE) 15:33:48 436.000
JAS-2 27 May 15:26:28 15:29:39 13° 280° (W) 15:32:56 435.910
ITAMSAT 1 27 May 15:39:28 15:44:26 47° 261° (W) 15:49:27 435.822/435.867
AO-7 27 May 15:42:21 15:50:39 81° 69° (ENE) 15:59:01 29.400- 29.500
TISAT 1 27 May 15:59:53 16:01:34 12° 300° (WNW) 16:03:15 437.305
AIST 2 27 May 16:18:28 16:21:20 18° 322° (NW) 16:24:14 435.215
AO-85 27 May 16:20:01 16:23:54 27° 247° (WSW) 16:27:29 145.980
KKS-1 27 May 16:24:24 16:28:23 32° 97° (E) 16:32:20 437.445
NOAA 15 27 May 16:26:45 16:28:09 11° 53° (NE) 16:29:34 137.62
NOAA 18 27 May 16:27:55 16:28:37 10° 51° (NE) 16:29:20 137.9125
SWISSCUBE 27 May 16:32:43 16:36:52 30° 294° (WNW) 16:41:01 437.505
Cosmos 2504 27 May 16:36:07 16:39:59 15° 75° (ENE) 16:43:55 435.465 / 435.565
MOZHAYETS 4 27 May 16:37:48 16:42:04 35° 97° (E) 16:46:18
ITUPSAT 1 27 May 16:38:45 16:42:54 29° 294° (WNW) 16:47:02 437.325
